CZ-6A DEB, 60964

Orbit data source: Space-Track

CZ-6A DEB, 60964 is space debris in LEO originally from a launch on Tue, 06 Aug 2024 UTC launched from the Taiyaun Space Center, China (TSC). Debris objects in space refer to the collection of defunct objects orbiting the Earth. Examples of debris include non-operational satellites, rocket bodies, and fragments generated from explosions, collisions, or faulty payload assembly.

Loading next visibility...
Identifier
60964, 2024-140LP
Orbit
LEO
Country
Flag of CNCN / PRC
Related business
Manufacturer
SAST
Mission
Spacecraft
Bus & Motor
Unknown
Mass
Unknown
Launch date (UTC)
2024-08-06 (2 years ago)
Launch vehicle
Unknown
Launch site
Taiyaun Space Center, China (TSC)
Object type
Payload
Rocket body
Debris
Shape & HBR
Unknown shape, 0.1 m
Radar Cross Section
Small (<0.1 m²)

Expand to show TLE details & history
Last TLE update: 13 hours ago

TLE from 13 hours ago
0 CZ-6A DEB
1 60964U 24140LP  26171.31875132  .00000229  00000-0  82175-4 0  9993
2 60964  89.0495 276.8495 0005281 301.4347  58.6332 14.30655941 95617
Epoch: 2026-06-20T07:39Z
TLE epoch observation values (Epoch: 2026-06-20T07:39:00.114Z)
Latitude
-0.00003°
Longitude
-106.43606°
Altitude
790.638 km
Speed
7.459 km/s
True Right ascension
18h 27m 23s
True Declination
0° 00' 00"
Sunlit
Object was in full shadow at epoch
Visualization orbit readout
Latitude
Unknown
Longitude
Unknown
Altitude
Unknown
Speed
Unknown
Apparent Right ascension
Unknown
Apparent Declination
Unknown
Sunlit
N/A
Visualization observer readout
Local Sidereal Time
07:19:40
Azimuth
Unknown
Elevation
Unknown
Doppler factor
Unknown
Orbital elements
Apogee altitude
790.258 km
Perigee altitude
782.691 km
Semi-major axis
7,164.612 km
Eccentricity
0.00053
Inclination
89.0495°
RAAN
276.8495°
Arg. of periapsis
301.4347°
True anomaly
58.68489°
Mean anomaly
58.6332°
Eccentric anomaly
58.65904°
Mean motion
3.57894 °/min
Orbital period
100.59 mins
BSTAR
0.000082175
Loading maneuver chart data...
Computing Atmospheric mass density...
Loading historical data...
Loading historical data...
Loading historical data...
Loading historical data...
Loading historical data...
Loading historical data...
Loading historical data...

Documentation

Showing up to 5 results
|